Air Force Academy, CO

5:39 PM MST on November 18, 2019 (GMT -0700)
Usaf Academy

Weather History for KAFF - May, 2019

Change the Weather History Date:

Saturday, May 18, 2019

  Actual Average Record
Temperature  
Mean Temperature 44 °F -  
Max Temperature 58 °F 66 °F 81 °F (2008)
Min Temperature 31 °F 39 °F 30 °F (2017)
Degree Days  
Heating Degree Days 21    
Moisture  
Dew Point 26 °F    
Average Humidity 45    
Maximum Humidity 81    
Minimum Humidity 22    
Precipitation  
Precipitation 0.00 in - - ()
Sea Level Pressure  
Sea Level Pressure 29.68 in    
Wind  
Wind Speed 9 mph (North)    
Max Wind Speed 23 mph    
Max Gust Speed 29 mph    
Visibility 10 miles    
Events Rain , Thunderstorm    
Averages and records for this station are not official NWS values.
T = Trace of Precipitation, MM = Missing Value Source: NWS Daily Summary

Daily Weather History Graph

Daily Weather History Graph

Search for Another Location

Airport or City:

Astronomy

May. 18, 2019 Rise Set
Actual Time 5:44 AM MDT 8:07 PM MDT
Civil Twilight 5:13 AM MDT 8:38 PM MDT
Nautical Twilight 4:36 AM MDT 9:15 PM MDT
Astronomical Twilight 3:55 AM MDT 9:57 PM MDT
Moon 8:06 PM MDT (5/18) 5:51 AM MDT (5/18)
Length of Visible Light 15h 24m
Length of Day
14h 23m
Full, 100% of the Moon is Illuminated
May 18
Full
May 18
Full
May 26
Last Quarter
Jun 3
New
Jun 10
First Quarter

Hourly Weather History & Observations

Time (MDT) Temp. Windchill Dew Point Humidity Pressure Visibility Wind Dir Wind Speed Gust Speed Precip Events Conditions
1:58 AM 40.3 °F 34.4 °F 18.5 °F 42% 29.55 in 10.0 mi NNW 9.2 mph - N/A   Clear
2:58 AM 38.3 °F - 20.3 °F 48% 29.55 in 10.0 mi Calm Calm - N/A   Clear
3:58 AM 34.0 °F - 20.3 °F 57% 29.58 in 10.0 mi Calm Calm - N/A   Clear
4:58 AM 31.6 °F 23.1 °F 20.8 °F 64% 29.62 in 10.0 mi North 10.4 mph - N/A   Partly Cloudy
5:58 AM 35.4 °F 29.0 °F 19.6 °F 53% 29.61 in 10.0 mi NNW 8.1 mph - N/A   Clear
6:58 AM 42.6 °F 40.9 °F 21.2 °F 43% 29.59 in 10.0 mi NNW 3.5 mph - N/A   Clear
7:58 AM 50.0 °F - 19.8 °F 30% 29.57 in 10.0 mi Calm Calm - N/A   Clear
8:58 AM 53.2 °F - 18.3 °F 25% 29.60 in 10.0 mi Calm Calm - N/A   Clear
9:06 AM 53.6 °F - 19.4 °F 26% 29.59 in 10.0 mi NNW 13.8 mph 18.4 mph N/A   Scattered Clouds
9:49 AM 53.6 °F - 19.4 °F 26% 29.59 in 10.0 mi WNW 23.0 mph 27.6 mph N/A   Overcast
9:58 AM 53.2 °F - 19.2 °F 26% 29.60 in 10.0 mi NNE 16.1 mph 20.7 mph N/A   Mostly Cloudy
10:06 AM 53.6 °F - 21.2 °F 28% 29.59 in 10.0 mi NE 9.2 mph 20.7 mph N/A Rain Light Rain
10:15 AM 53.6 °F - 19.4 °F 26% 29.59 in 10.0 mi North 11.5 mph 19.6 mph N/A   Mostly Cloudy
10:54 AM 53.6 °F - 17.6 °F 24% 29.59 in 10.0 mi North 15.0 mph 25.3 mph N/A   Mostly Cloudy
10:58 AM 53.1 °F - 16.2 °F 23% 29.59 in 10.0 mi NNW 13.8 mph 20.7 mph 0.00 in   Mostly Cloudy
11:01 AM 53.6 °F - 15.8 °F 22% 29.59 in 10.0 mi NW 16.1 mph - N/A   Overcast
11:58 AM 56.1 °F - 22.6 °F 27% 29.61 in 10.0 mi NW 18.4 mph 28.8 mph N/A   Mostly Cloudy
1:15 PM 57.2 °F - 23.0 °F 27% 29.61 in 10.0 mi NNW 17.3 mph 23.0 mph N/A   Scattered Clouds
1:37 PM 55.4 °F - 23.0 °F 29% 29.62 in 10.0 mi North 16.1 mph 20.7 mph N/A   Mostly Cloudy
1:52 PM 57.2 °F - 23.0 °F 27% 29.62 in 10.0 mi NNE 17.3 mph 23.0 mph N/A   Mostly Cloudy
1:58 PM 57.4 °F - 21.9 °F 25% 29.62 in 10.0 mi North 18.4 mph 26.5 mph N/A   Mostly Cloudy
2:07 PM 55.4 °F - 26.6 °F 33% 29.63 in 10.0 mi NE 23.0 mph 28.8 mph N/A   Mostly Cloudy
2:37 PM 48.2 °F - 28.4 °F 46% 29.69 in 10.0 mi Calm Calm - N/A   Overcast
2:41 PM 48.2 °F - 24.8 °F 40% 29.69 in 10.0 mi Calm Calm - N/A   Light Drizzle
2:50 PM 50.0 °F - 26.6 °F 40% 29.70 in 10.0 mi Calm Calm - N/A   Overcast
2:53 PM 50.0 °F - 26.6 °F 40% 29.70 in 10.0 mi Calm Calm - N/A Thunderstorm Mostly Cloudy
2:58 PM 50.5 °F - 27.1 °F 40% 29.70 in 10.0 mi NE 8.1 mph - 0.00 in Thunderstorm Mostly Cloudy
3:11 PM 51.8 °F - 26.6 °F 38% 29.70 in 10.0 mi ENE 9.2 mph - N/A   Mostly Cloudy
3:26 PM 50.0 °F - 28.4 °F 43% 29.71 in 10.0 mi SE 8.1 mph - N/A Rain Light Rain
3:42 PM 48.2 °F - 33.8 °F 58% 29.74 in 10.0 mi SSE 6.9 mph - N/A   Overcast
3:57 PM 46.4 °F 41.5 °F 35.6 °F 66% 29.76 in 10.0 mi SSE 10.4 mph - N/A   Overcast
3:58 PM 47.1 °F - 36.0 °F 65% 29.76 in 10.0 mi SSE 9.2 mph - 0.00 in   Overcast
4:13 PM 48.2 °F - 35.6 °F 62% 29.76 in 10.0 mi South 11.5 mph - N/A   Mostly Cloudy
4:28 PM 50.0 °F - 35.6 °F 58% 29.77 in 10.0 mi SSW 13.8 mph - N/A   Mostly Cloudy
4:44 PM 50.0 °F - 35.6 °F 58% 29.78 in 10.0 mi SSE 12.7 mph - N/A   Scattered Clouds
4:58 PM 48.6 °F - 35.2 °F 60% 29.81 in 10.0 mi South 15.0 mph - N/A   Mostly Cloudy
5:28 PM 46.4 °F 41.9 °F 33.8 °F 62% 29.80 in 10.0 mi South 9.2 mph - N/A   Mostly Cloudy
5:58 PM 48.0 °F - 33.4 °F 57% 29.77 in 10.0 mi South 6.9 mph - N/A   Mostly Cloudy
6:58 PM 48.2 °F - 34.2 °F 58% 29.74 in 10.0 mi Calm Calm - N/A   Clear
7:58 PM 46.2 °F - 33.1 °F 60% 29.73 in 10.0 mi Calm Calm - N/A   Partly Cloudy
8:58 PM 38.8 °F 36.5 °F 32.9 °F 79% 29.78 in 10.0 mi NW 3.5 mph - N/A   Clear
9:58 PM 37.0 °F 32.4 °F 30.6 °F 77% 29.84 in 10.0 mi NW 5.8 mph - N/A   Clear
10:58 PM 34.9 °F 28.3 °F 29.7 °F 81% 29.84 in 10.0 mi North 8.1 mph - N/A   Clear
11:58 PM 33.1 °F 28.7 °F 27.0 °F 78% 29.86 in 10.0 mi NNW 4.6 mph - N/A   Clear